Location: Boiro
(42.6475°N, 8.8834°W)
Time: 17:19:04
(UTC+01:00)

Transit 2A Rocket - Pass Details

Date: 30 November 2021
Orbit: 584 x 918 km, 66.7° (Epoch: 19 January)

Event Time Altitude Azimuth Distance (km) Brightness Sun altitude
Rises 08:27:46 0° 157° (SSE) 3,257 9.1 -3.6°
Reaches altitude 10° 08:31:08 10° 135° (SE) 2,404 9.1 -3.1°
Maximum altitude 08:34:11 15° 102° (ESE) 2,125 8.8 -2.6°
Drops below altitude 10° 08:37:20 10° 69° (ENE) 2,519 8.3 -2.1°
Sets 08:40:59 0° 47° (NE) 3,511 8.7 -1.5°
